FFT3292 KLAX-KLAS

Flight info

Callsign FFT3292
Flight time N/A
Altitude 29000
Route ORCKA5 MISEN RNDRZ4
Aircraft A320/M-SDE3FGHIRWY/LB1

Departure

Time 2026-05-07 23:21
Airport Los Angeles International Airport (KLAX)

Arrival

Time N/A
Airport Harry Reid International Airport (KLAS)
Time Latitude Longitude Altitude Speed Heading
2026-05-07 23:06 33.94578 -118.41622 94 ft 0 kts 83°
2026-05-07 23:14 33.94576 -118.41639 92 ft 2 kts 83°
2026-05-07 23:14 33.94574 -118.41659 91 ft 2 kts 83°
2026-05-07 23:14 33.94573 -118.41679 94 ft 2 kts 72°
2026-05-07 23:14 33.94563 -118.41695 93 ft 2 kts
2026-05-07 23:15 33.94561 -118.41695 93 ft 0 kts 357°
2026-05-07 23:16 33.94598 -118.41698 96 ft 14 kts 356°
2026-05-07 23:16 33.94645 -118.41690 93 ft 7 kts 34°
2026-05-07 23:16 33.94656 -118.41619 93 ft 11 kts 85°
2026-05-07 23:17 33.94667 -118.41510 94 ft 15 kts 83°
2026-05-07 23:17 33.94683 -118.41368 93 ft 19 kts 83°
2026-05-07 23:17 33.94711 -118.41197 93 ft 23 kts 72°
2026-05-07 23:17 33.94736 -118.41021 93 ft 21 kts 83°
2026-05-07 23:18 33.94778 -118.40893 94 ft 17 kts 31°
2026-05-07 23:18 33.94844 -118.40777 94 ft 20 kts 84°
2026-05-07 23:18 33.94861 -118.40594 94 ft 24 kts 84°
2026-05-07 23:18 33.94886 -118.40379 94 ft 28 kts 80°
2026-05-07 23:19 33.94908 -118.40144 94 ft 27 kts 83°
2026-05-07 23:19 33.94935 -118.39945 94 ft 12 kts 62°
2026-05-07 23:19 33.94949 -118.39926 95 ft 0 kts 37°
2026-05-07 23:20 33.94961 -118.39918 94 ft 10 kts 26°
2026-05-07 23:20 33.95039 -118.39982 95 ft 18 kts 268°
2026-05-07 23:20 33.95035 -118.40021 94 ft 2 kts 263°
2026-05-07 23:21 33.95017 -118.40193 101 ft 55 kts 263°
2026-05-07 23:21 33.94941 -118.40937 97 ft 121 kts 262°
2026-05-07 23:21 33.94834 -118.42108 394 ft 145 kts 263°
2026-05-07 23:21 33.94689 -118.43309 1085 ft 147 kts 261°
2026-05-07 23:22 33.94537 -118.44545 1837 ft 151 kts 262°
2026-05-07 23:22 33.94376 -118.45797 2565 ft 154 kts 263°
2026-05-07 23:22 33.94194 -118.47169 2945 ft 174 kts 263°
2026-05-07 23:22 33.94050 -118.48689 3354 ft 190 kts 266°
2026-05-07 23:23 33.93908 -118.50353 3640 ft 211 kts 264°
2026-05-07 23:23 33.93718 -118.52222 3965 ft 238 kts 264°
2026-05-07 23:23 33.93497 -118.54284 4514 ft 256 kts 263°
2026-05-07 23:23 33.93260 -118.56430 5374 ft 261 kts 263°
2026-05-07 23:24 33.92928 -118.58597 6275 ft 266 kts 252°
2026-05-07 23:24 33.91958 -118.60524 7087 ft 276 kts 226°
2026-05-07 23:24 33.90316 -118.61774 7872 ft 288 kts 199°
2026-05-07 23:24 33.88303 -118.61962 8665 ft 298 kts 169°
2026-05-07 23:25 33.86416 -118.60935 9518 ft 302 kts 138°
2026-05-07 23:25 33.85165 -118.58939 10373 ft 301 kts 110°
2026-05-07 23:25 33.84863 -118.56487 11219 ft 298 kts 82°
2026-05-07 23:25 33.85563 -118.54184 12070 ft 295 kts 54°
2026-05-07 23:26 33.86880 -118.52180 12406 ft 317 kts 49°
2026-05-07 23:26 33.88376 -118.50097 12733 ft 337 kts 48°
2026-05-07 23:26 33.89954 -118.47953 13355 ft 345 kts 47°
2026-05-07 23:26 33.91554 -118.45782 14081 ft 350 kts 48°
2026-05-07 23:27 33.94552 -118.41104 15435 ft 357 kts 55°
2026-05-07 23:27 33.95965 -118.38625 16149 ft 360 kts 55°
2026-05-07 23:27 33.97401 -118.36084 16830 ft 364 kts 55°
2026-05-07 23:28 33.98824 -118.33558 17543 ft 366 kts 55°
2026-05-07 23:28 34.00261 -118.31008 18231 ft 369 kts 55°
2026-05-07 23:28 34.01712 -118.28436 18786 ft 373 kts 55°
2026-05-07 23:28 34.03180 -118.25837 19357 ft 376 kts 55°
2026-05-07 23:29 34.04664 -118.23215 19908 ft 380 kts 54°
2026-05-07 23:29 34.06158 -118.20578 20467 ft 383 kts 54°
2026-05-07 23:29 34.07668 -118.17917 21009 ft 386 kts 54°
2026-05-07 23:29 34.09190 -118.15229 21538 ft 389 kts 54°
2026-05-07 23:30 34.10721 -118.12520 22094 ft 393 kts 55°
2026-05-07 23:30 34.12265 -118.09786 22618 ft 395 kts 54°
2026-05-07 23:30 34.13819 -118.07030 23136 ft 399 kts 55°
2026-05-07 23:30 34.15384 -118.04251 23623 ft 402 kts 54°
2026-05-07 23:31 34.16964 -118.01448 24028 ft 405 kts 54°
2026-05-07 23:31 34.18556 -117.98622 24444 ft 408 kts 54°
2026-05-07 23:31 34.20157 -117.95779 24879 ft 411 kts 54°
2026-05-07 23:31 34.21765 -117.92920 25307 ft 412 kts 54°
2026-05-07 23:32 34.23383 -117.90040 25719 ft 415 kts 54°
2026-05-07 23:32 34.25006 -117.87146 26143 ft 417 kts 54°
2026-05-07 23:32 34.26638 -117.84233 26560 ft 419 kts 54°
2026-05-07 23:32 34.28276 -117.81310 26916 ft 422 kts 54°
2026-05-07 23:33 34.29928 -117.78366 27287 ft 424 kts 54°
2026-05-07 23:33 34.31610 -117.75362 27675 ft 427 kts 54°
2026-05-07 23:33 34.33275 -117.72378 28073 ft 429 kts 54°
2026-05-07 23:33 34.34945 -117.69377 28459 ft 431 kts 54°
2026-05-07 23:34 34.36654 -117.66381 28826 ft 434 kts 53°
2026-05-07 23:34 34.38414 -117.63411 28951 ft 432 kts 52°
2026-05-07 23:34 34.41907 -117.57664 28945 ft 420 kts 52°
2026-05-07 23:35 34.45347 -117.51980 28998 ft 417 kts 52°
2026-05-07 23:35 34.48735 -117.46292 29026 ft 415 kts 52°
2026-05-07 23:36 34.52107 -117.40592 29034 ft 417 kts 53°
2026-05-07 23:36 34.55488 -117.34879 29033 ft 417 kts 53°
2026-05-07 23:37 34.58874 -117.29171 29031 ft 417 kts 53°
2026-05-07 23:37 34.62255 -117.23458 29013 ft 417 kts 53°